| time (UTC) | temp F | wind direction | speed MPH | gust MPH | rain 1hr in | rain 24hr in | rain mn in | humidity % | barometer mb |
| 20260503213403 | 43 | 342 | 0.0 | 0.0 | 0.00 | 0.09 | 0.05 | 95 | 1013.4 |
| 20260503212903 | 43 | 342 | 0.0 | 0.0 | 0.00 | 0.09 | 0.05 | 95 | 1013.4 |
| 20260503212404 | 43 | 342 | 0.0 | 0.0 | 0.00 | 0.09 | 0.05 | 95 | 1013.4 |
| 20260503211903 | 44 | 342 | 0.0 | 0.0 | 0.00 | 0.09 | 0.05 | 95 | 1013.5 |
| 20260503211404 | 44 | 342 | 0.0 | 0.0 | 0.00 | 0.09 | 0.05 | 95 | 1013.4 |
| 20260503210903 | 44 | 342 | 0.0 | 0.0 | 0.00 | 0.09 | 0.05 | 95 | 1013.5 |
| 20260503210404 | 44 | 342 | 0.0 | 0.0 | 0.00 | 0.09 | 0.05 | 95 | 1013.4 |
| 20260503205904 | 44 | 342 | 0.0 | 0.0 | 0.00 | 0.09 | 0.05 | 95 | 1013.4 |
| 20260503205404 | 44 | 342 | 0.0 | 0.0 | 0.00 | 0.09 | 0.05 | 95 | 1013.3 |
| 20260503204904 | 45 | 342 | 0.0 | 0.0 | 0.00 | 0.09 | 0.05 | 94 | 1013.2 |
| 20260503204403 | 45 | 342 | 0.0 | 1.0 | 0.00 | 0.09 | 0.05 | 94 | 1013.1 |
| 20260503203903 | 45 | 342 | 0.0 | 0.0 | 0.00 | 0.09 | 0.05 | 94 | 1013.0 |
| 20260503203404 | 46 | 342 | 0.0 | 1.0 | 0.00 | 0.09 | 0.05 | 94 | 1013.0 |
| 20260503202904 | 46 | 342 | 0.0 | 0.0 | 0.00 | 0.09 | 0.05 | 94 | 1013.0 |
| 20260503201904 | 47 | 342 | 0.0 | 0.0 | 0.00 | 0.09 | 0.05 | 94 | 1013.0 |
| 20260503201403 | 47 | 342 | 0.0 | 0.0 | 0.00 | 0.09 | 0.05 | 94 | 1013.0 |
| 20260503200903 | 48 | 342 | 0.0 | 0.0 | 0.00 | 0.09 | 0.05 | 94 | 1012.9 |
| 20260503195903 | 49 | 342 | 0.0 | 1.0 | 0.00 | 0.09 | 0.05 | 94 | 1012.9 |
| 20260503195403 | 50 | 342 | 0.0 | 1.0 | 0.00 | 0.09 | 0.05 | 95 | 1012.9 |
| 20260503194904 | 50 | 342 | 0.0 | 0.0 | 0.00 | 0.09 | 0.05 | 94 | 1012.9 |
| 20260503194404 | 51 | 342 | 0.0 | 0.0 | 0.00 | 0.09 | 0.05 | 94 | 1012.9 |
| 20260503192904 | 52 | 342 | 0.0 | 0.0 | 0.00 | 0.09 | 0.05 | 94 | 1012.7 |
| 20260503192404 | 52 | 342 | 0.0 | 0.0 | 0.00 | 0.09 | 0.05 | 94 | 1012.8 |
| 20260503191403 | 52 | 342 | 0.0 | 0.0 | 0.00 | 0.09 | 0.05 | 93 | 1012.8 |
| 20260503190903 | 53 | 342 | 0.0 | 0.0 | 0.00 | 0.09 | 0.05 | 92 | 1012.7 |
| 20260503190405 | 53 | 342 | 0.0 | 0.0 | 0.00 | 0.09 | 0.05 | 91 | 1012.6 |
| 20260503185904 | 53 | 340 | 0.0 | 0.0 | 0.00 | 0.09 | 0.05 | 90 | 1012.5 |
| 20260503185404 | 53 | 340 | 0.0 | 1.0 | 0.00 | 0.09 | 0.05 | 90 | 1012.5 |
| 20260503184403 | 54 | 340 | 0.0 | 0.0 | 0.00 | 0.09 | 0.05 | 88 | 1012.4 |
| 20260503183403 | 55 | 340 | 0.0 | 0.0 | 0.00 | 0.09 | 0.05 | 89 | 1012.3 |
| 20260503182403 | 55 | 340 | 0.0 | 1.0 | 0.00 | 0.09 | 0.05 | 87 | 1012.2 |
| 20260503181904 | 55 | 340 | 0.0 | 2.0 | 0.00 | 0.09 | 0.05 | 88 | 1012.2 |
| 20260503181404 | 56 | 340 | 0.0 | 0.0 | 0.00 | 0.09 | 0.05 | 91 | 1012.1 |
| 20260503180903 | 56 | 340 | 0.0 | 0.0 | 0.00 | 0.09 | 0.05 | 88 | 1012.1 |
| 20260503180403 | 55 | 340 | 0.0 | 2.0 | 0.00 | 0.09 | 0.05 | 92 | 1012.2 |
| 20260503175904 | 54 | 340 | 0.0 | 0.0 | 0.00 | 0.09 | 0.05 | 94 | 1012.2 |
| 20260503175404 | 53 | 340 | 0.0 | 0.0 | 0.00 | 0.09 | 0.05 | 93 | 1012.2 |
| 20260503174905 | 53 | 340 | 0.0 | 0.0 | 0.00 | 0.09 | 0.05 | 93 | 1012.3 |
| 20260503174404 | 53 | 340 | 0.0 | 0.0 | 0.00 | 0.09 | 0.05 | 93 | 1012.4 |
| 20260503173904 | 53 | 340 | 0.0 | 0.0 | 0.00 | 0.09 | 0.05 | 93 | 1012.4 |
| 20260503173403 | 53 | 340 | 0.0 | 0.0 | 0.01 | 0.09 | 0.05 | 93 | 1012.5 |
| 20260503172903 | 53 | 340 | 0.0 | 0.0 | 0.01 | 0.09 | 0.05 | 93 | 1012.3 |
| 20260503171403 | 53 | 340 | 0.0 | 2.0 | 0.01 | 0.09 | 0.05 | 93 | 1012.3 |
| 20260503170904 | 52 | 340 | 0.0 | 0.0 | 0.01 | 0.09 | 0.05 | 94 | 1012.4 |
| 20260503170405 | 53 | 340 | 0.0 | 3.0 | 0.02 | 0.09 | 0.05 | 94 | 1012.4 |
| 20260503150903 | 54 | 342 | 1.0 | 3.0 | 0.00 | 0.05 | 0.00 | 85 | 1012.6 |
| 20260503131404 | 57 | 342 | 1.0 | 5.0 | 0.00 | 0.05 | 0.00 | 75 | 1012.9 |
| 20260503130904 | 57 | 341 | 3.0 | 6.0 | 0.00 | 0.05 | 0.00 | 74 | 1013.0 |
| 20260503130404 | 58 | 340 | 2.0 | 5.0 | 0.00 | 0.05 | 0.00 | 73 | 1013.0 |
| 20260503110405 | 53 | 13 | 2.0 | 5.0 | 0.00 | 0.05 | 0.00 | 83 | 1013.5 |
| 20260503090403 | 51 | 298 | 2.0 | 3.0 | 0.00 | 0.05 | 0.00 | 90 | 1013.4 |
| 20260503081404 | 49 | 17 | 2.0 | 8.0 | 0.00 | 0.05 | 0.00 | 91 | 1013.5 |
| 20260503080905 | 49 | 14 | 2.0 | 8.0 | 0.00 | 0.05 | 0.00 | 91 | 1013.5 |
| 20260503080403 | 49 | 14 | 4.0 | 8.0 | 0.00 | 0.05 | 0.00 | 92 | 1013.5 |
| 20260503072403 | 48 | 17 | 1.0 | 5.0 | 0.00 | 0.05 | 0.00 | 92 | 1013.4 |
| 20260503071404 | 48 | 17 | 0.0 | 2.0 | 0.00 | 0.05 | 0.00 | 92 | 1013.4 |
| 20260503070905 | 48 | 17 | 1.0 | 3.0 | 0.00 | 0.05 | 0.00 | 93 | 1013.4 |
| 20260503054405 | 47 | 19 | 1.0 | 3.0 | 0.00 | 0.05 | 0.00 | 94 | 1013.2 |
| 20260503053905 | 47 | 19 | 1.0 | 3.0 | 0.00 | 0.05 | 0.00 | 94 | 1013.2 |
| 20260503053403 | 47 | 19 | 1.0 | 5.0 | 0.00 | 0.05 | 0.00 | 94 | 1013.0 |
| 20260503052905 | 47 | 19 | 1.0 | 5.0 | 0.00 | 0.05 | 0.00 | 94 | 1013.0 |
| 20260503052403 | 47 | 19 | 1.0 | 3.0 | 0.00 | 0.05 | 0.00 | 93 | 1012.9 |
| 20260503051903 | 47 | 19 | 1.0 | 3.0 | 0.00 | 0.05 | 0.00 | 93 | 1013.0 |
| 20260503051405 | 47 | 19 | 2.0 | 3.0 | 0.00 | 0.05 | 0.00 | 93 | 1013.0 |
| 20260503050404 | 47 | 19 | 1.0 | 3.0 | 0.00 | 0.05 | 0.00 | 93 | 1012.9 |
| 20260503045905 | 47 | 19 | 1.0 | 6.0 | 0.00 | 0.05 | 0.00 | 93 | 1012.9 |
| 20260503045404 | 47 | 19 | 3.0 | 7.0 | 0.00 | 0.05 | 0.00 | 94 | 1012.8 |
| 20260503044404 | 47 | 15 | 1.0 | 5.0 | 0.00 | 0.05 | 0.00 | 94 | 1012.8 |
| 20260503043904 | 47 | 15 | 0.0 | 3.0 | 0.00 | 0.05 | 0.00 | 94 | 1012.8 |
| 20260503043404 | 47 | 16 | 1.0 | 3.0 | 0.00 | 0.05 | 0.00 | 93 | 1012.9 |
| 20260503042904 | 47 | 15 | 1.0 | 7.0 | 0.00 | 0.05 | 0.00 | 93 | 1012.9 |
| 20260503042404 | 47 | 15 | 1.0 | 3.0 | 0.00 | 0.05 | 0.00 | 94 | 1012.9 |
| 20260503041904 | 47 | 15 | 1.0 | 3.0 | 0.00 | 0.05 | 0.00 | 94 | 1013.0 |
| 20260503041404 | 47 | 15 | 0.0 | 3.0 | 0.00 | 0.05 | 0.00 | 94 | 1012.9 |
| 20260503040403 | 48 | 15 | 0.0 | 3.0 | 0.00 | 0.05 | 0.00 | 94 | 1013.0 |
| 20260503035904 | 47 | 15 | 1.0 | 3.0 | 0.00 | 0.05 | 0.00 | 94 | 1013.1 |
| 20260503035404 | 47 | 15 | 0.0 | 3.0 | 0.00 | 0.05 | 0.00 | 94 | 1013.2 |
| 20260503034904 | 47 | 15 | 0.0 | 3.0 | 0.00 | 0.05 | 0.00 | 94 | 1013.2 |
| 20260503034404 | 47 | 15 | 2.0 | 6.0 | 0.00 | 0.05 | 0.00 | 94 | 1013.2 |
| 20260503033904 | 48 | 11 | 2.0 | 6.0 | 0.00 | 0.05 | 0.00 | 94 | 1013.3 |
| 20260503033404 | 48 | 0 | 3.0 | 8.0 | 0.00 | 0.05 | 0.00 | 94 | 1013.2 |
| 20260503032403 | 48 | 355 | 2.0 | 7.0 | 0.00 | 0.05 | 0.00 | 94 | 1013.2 |
| 20260503031905 | 48 | 12 | 3.0 | 10.0 | 0.00 | 0.05 | 0.00 | 94 | 1013.3 |
| 20260503031404 | 48 | 5 | 3.0 | 7.0 | 0.00 | 0.05 | 0.00 | 94 | 1013.3 |
| 20260503030904 | 48 | 9 | 2.0 | 9.0 | 0.00 | 0.05 | 0.00 | 94 | 1013.3 |
| 20260503030403 | 48 | 10 | 2.0 | 3.0 | 0.00 | 0.05 | 0.00 | 94 | 1013.3 |
| 20260503025904 | 48 | 10 | 1.0 | 5.0 | 0.00 | 0.05 | 0.00 | 94 | 1013.3 |
| 20260503025403 | 48 | 10 | 2.0 | 5.0 | 0.00 | 0.05 | 0.00 | 94 | 1013.2 |
| 20260503024906 | 48 | 10 | 0.0 | 5.0 | 0.00 | 0.05 | 0.00 | 94 | 1013.2 |
| 20260503024404 | 48 | 10 | 1.0 | 5.0 | 0.00 | 0.05 | 0.00 | 94 | 1013.2 |
| 20260503022905 | 48 | 10 | 1.0 | 3.0 | 0.00 | 0.05 | 0.00 | 94 | 1013.2 |
| 20260503022405 | 48 | 10 | 2.0 | 7.0 | 0.00 | 0.05 | 0.00 | 94 | 1013.3 |
| 20260503021904 | 48 | 10 | 2.0 | 6.0 | 0.00 | 0.05 | 0.00 | 94 | 1013.3 |
| 20260503020905 | 48 | 15 | 2.0 | 9.0 | 0.00 | 0.05 | 0.00 | 94 | 1013.3 |
| 20260503015904 | 48 | 0 | 3.0 | 7.0 | 0.00 | 0.05 | 0.00 | 94 | 1013.3 |
| 20260503014904 | 48 | 11 | 3.0 | 8.0 | 0.00 | 0.05 | 0.00 | 94 | 1013.3 |
| 20260503013905 | 48 | 14 | 2.0 | 5.0 | 0.00 | 0.05 | 0.00 | 94 | 1013.4 |
| 20260503013404 | 48 | 14 | 1.0 | 5.0 | 0.00 | 0.05 | 0.00 | 94 | 1013.3 |
| 20260503012405 | 48 | 14 | 1.0 | 3.0 | 0.00 | 0.05 | 0.00 | 94 | 1013.3 |
| 20260503011905 | 48 | 14 | 1.0 | 6.0 | 0.00 | 0.05 | 0.00 | 94 | 1013.4 |
| 20260503011403 | 48 | 15 | 2.0 | 3.0 | 0.00 | 0.05 | 0.00 | 94 | 1013.4 |
| 20260503010904 | 48 | 15 | 2.0 | 7.0 | 0.00 | 0.05 | 0.00 | 94 | 1013.5 |
| 20260503010405 | 48 | 13 | 1.0 | 5.0 | 0.00 | 0.05 | 0.00 | 94 | 1013.5 |
| 20260503005905 | 48 | 10 | 1.0 | 6.0 | 0.00 | 0.05 | 0.00 | 94 | 1013.5 |
| 20260503005405 | 48 | 10 | 1.0 | 5.0 | 0.00 | 0.05 | 0.00 | 94 | 1013.5 |
| 20260503004404 | 48 | 9 | 1.0 | 5.0 | 0.00 | 0.05 | 0.00 | 94 | 1013.6 |
| 20260503003903 | 48 | 0 | 2.0 | 12.0 | 0.00 | 0.05 | 0.00 | 94 | 1013.5 |
| 20260503003403 | 48 | 13 | 2.0 | 6.0 | 0.00 | 0.05 | 0.00 | 95 | 1013.5 |
| 20260503002404 | 48 | 12 | 3.0 | 9.0 | 0.00 | 0.05 | 0.00 | 95 | 1013.5 |
| 20260503001904 | 48 | 13 | 0.0 | 3.0 | 0.00 | 0.05 | 0.00 | 95 | 1013.4 |
| 20260503000904 | 48 | 9 | 3.0 | 5.0 | 0.00 | 0.05 | 0.00 | 95 | 1013.5 |
| 20260503000404 | 48 | 8 | 2.0 | 8.0 | 0.00 | 0.05 | 0.00 | 95 | 1013.5 |
| 20260502235905 | 48 | 18 | 2.0 | 8.0 | 0.00 | 0.05 | 0.00 | 95 | 1013.4 |
| 20260502234904 | 48 | 38 | 4.0 | 12.0 | 0.00 | 0.05 | 0.00 | 95 | 1013.5 |
| 20260502234404 | 48 | 19 | 2.0 | 10.0 | 0.00 | 0.05 | 0.00 | 95 | 1013.5 |
| 20260502233905 | 48 | 6 | 2.0 | 5.0 | 0.00 | 0.05 | 0.00 | 95 | 1013.6 |
| 20260502233404 | 48 | 9 | 1.0 | 7.0 | 0.00 | 0.05 | 0.00 | 95 | 1013.5 |
| 20260502232904 | 48 | 13 | 1.0 | 9.0 | 0.00 | 0.05 | 0.00 | 95 | 1013.5 |
| 20260502232404 | 48 | 11 | 1.0 | 5.0 | 0.00 | 0.05 | 0.00 | 95 | 1013.5 |
| 20260502231904 | 48 | 11 | 1.0 | 3.0 | 0.00 | 0.05 | 0.00 | 95 | 1013.5 |
| 20260502231404 | 48 | 11 | 1.0 | 6.0 | 0.01 | 0.05 | 0.00 | 95 | 1013.5 |
| 20260502230905 | 48 | 13 | 5.0 | 12.0 | 0.01 | 0.05 | 0.00 | 95 | 1013.5 |
| 20260502230404 | 48 | 12 | 2.0 | 7.0 | 0.01 | 0.05 | 0.00 | 95 | 1013.5 |
| 20260502225904 | 48 | 15 | 2.0 | 8.0 | 0.02 | 0.05 | 0.05 | 95 | 1013.5 |
| 20260502225404 | 48 | 15 | 0.0 | 3.0 | 0.03 | 0.05 | 0.05 | 94 | 1013.6 |
| 20260502224405 | 48 | 15 | 1.0 | 3.0 | 0.05 | 0.05 | 0.05 | 94 | 1013.4 |
| 20260502223906 | 48 | 15 | 0.0 | 5.0 | 0.05 | 0.05 | 0.05 | 94 | 1013.5 |
| 20260502223405 | 48 | 15 | 1.0 | 7.0 | 0.05 | 0.05 | 0.05 | 94 | 1013.4 |
| 20260502222905 | 48 | 16 | 0.0 | 3.0 | 0.05 | 0.05 | 0.05 | 94 | 1013.4 |
| 20260502222406 | 48 | 16 | 0.0 | 2.0 | 0.05 | 0.05 | 0.05 | 94 | 1013.4 |
| 20260502221906 | 48 | 16 | 0.0 | 3.0 | 0.05 | 0.05 | 0.05 | 94 | 1013.5 |
| 20260502221405 | 48 | 16 | 1.0 | 5.0 | 0.04 | 0.04 | 0.04 | 94 | 1013.5 |
| 20260502220906 | 48 | 16 | 1.0 | 6.0 | 0.04 | 0.04 | 0.04 | 93 | 1013.5 |
| 20260502220405 | 48 | 15 | 1.0 | 7.0 | 0.04 | 0.04 | 0.04 | 93 | 1013.5 |
| 20260502215905 | 48 | 16 | 1.0 | 6.0 | 0.03 | 0.03 | 0.03 | 92 | 1013.5 |
| 20260502215405 | 49 | 16 | 2.0 | 12.0 | 0.02 | 0.02 | 0.02 | 92 | 1013.5 |
| 20260502214906 | 49 | 350 | 5.0 | 12.0 | 0.01 | 0.01 | 0.01 | 91 | 1013.5 |
| 20260502214405 | 49 | 12 | 2.0 | 6.0 | 0.00 | 0.00 | 0.00 | 90 | 1013.5 |